WJA73 EGPH-CYHZ

Flight info

Callsign WJA73
Flight time 5h 53m
Altitude 32000
Route GOSA1D GOSAM P600 FENIK NORBO MAC MOLAK GISTI MALOT 53N020W 53N030W 53N040W 51N050W ALLRY SASUG AGMIR LIRLA5
Aircraft B737/M-V/N

Departure

Time 2026-04-21 13:46
Airport Edinburgh Airport (EGPH)

Arrival

Time 2026-04-21 19:39
Airport Halifax / Stanfield International Airport (CYHZ)
Time Latitude Longitude Altitude Speed Heading
2026-04-21 13:03 55.94819 -3.35765 143 ft 0 kts 209°
2026-04-21 13:04 55.94814 -3.35770 143 ft 0 kts 209°
2026-04-21 13:04 55.94814 -3.35771 143 ft 0 kts 209°
2026-04-21 13:05 55.94813 -3.35771 143 ft 0 kts 209°
2026-04-21 13:26 55.94824 -3.35760 143 ft 3 kts 210°
2026-04-21 13:27 55.94841 -3.35742 143 ft 3 kts 214°
2026-04-21 13:27 55.94858 -3.35720 143 ft 3 kts 221°
2026-04-21 13:27 55.94871 -3.35695 143 ft 3 kts 242°
2026-04-21 13:27 55.94875 -3.35667 143 ft 2 kts 293°
2026-04-21 13:28 55.94872 -3.35655 143 ft 0 kts 298°
2026-04-21 13:34 55.94880 -3.35682 143 ft 6 kts 298°
2026-04-21 13:34 55.94906 -3.35765 143 ft 9 kts 298°
2026-04-21 13:34 55.94943 -3.35866 143 ft 10 kts 330°
2026-04-21 13:34 55.95015 -3.35833 143 ft 12 kts 15°
2026-04-21 13:35 55.95069 -3.35930 143 ft 13 kts 298°
2026-04-21 13:35 55.95110 -3.36078 143 ft 13 kts 290°
2026-04-21 13:35 55.95137 -3.36245 143 ft 15 kts 265°
2026-04-21 13:35 55.95092 -3.36407 143 ft 15 kts 240°
2026-04-21 13:36 55.95041 -3.36561 143 ft 14 kts 239°
2026-04-21 13:36 55.94992 -3.36706 143 ft 13 kts 239°
2026-04-21 13:36 55.94945 -3.36843 143 ft 13 kts 239°
2026-04-21 13:36 55.94901 -3.36973 143 ft 12 kts 239°
2026-04-21 13:37 55.94872 -3.37058 143 ft 12 kts 239°
2026-04-21 13:37 55.94832 -3.37181 143 ft 11 kts 239°
2026-04-21 13:37 55.94792 -3.37299 143 ft 11 kts 239°
2026-04-21 13:37 55.94741 -3.37449 143 ft 10 kts 239°
2026-04-21 13:38 55.94717 -3.37521 143 ft 10 kts 239°
2026-04-21 13:38 55.94682 -3.37624 143 ft 10 kts 239°
2026-04-21 13:38 55.94638 -3.37756 143 ft 9 kts 240°
2026-04-21 13:38 55.94617 -3.37821 143 ft 9 kts 240°
2026-04-21 13:39 55.94586 -3.37912 143 ft 8 kts 238°
2026-04-21 13:39 55.94547 -3.38027 143 ft 8 kts 238°
2026-04-21 13:39 55.94528 -3.38082 143 ft 8 kts 238°
2026-04-21 13:39 55.94501 -3.38162 143 ft 7 kts 238°
2026-04-21 13:40 55.94475 -3.38237 143 ft 7 kts 239°
2026-04-21 13:40 55.94448 -3.38319 143 ft 9 kts 240°
2026-04-21 13:40 55.94396 -3.38475 143 ft 11 kts 238°
2026-04-21 13:40 55.94370 -3.38552 143 ft 11 kts 238°
2026-04-21 13:41 55.94332 -3.38664 143 ft 10 kts 239°
2026-04-21 13:41 55.94296 -3.38771 143 ft 10 kts 239°
2026-04-21 13:41 55.94282 -3.38825 143 ft 4 kts 268°
2026-04-21 13:41 55.94295 -3.38866 143 ft 4 kts 316°
2026-04-21 13:42 55.94317 -3.38891 143 ft 4 kts 329°
2026-04-21 13:42 55.94328 -3.38904 143 ft 0 kts 328°
2026-04-21 13:43 55.94342 -3.38919 143 ft 6 kts 328°
2026-04-21 13:43 55.94390 -3.38969 143 ft 9 kts 341°
2026-04-21 13:43 55.94436 -3.38930 143 ft 3 kts 58°
2026-04-21 13:44 55.94436 -3.38929 143 ft 0 kts 58°
2026-04-21 13:44 55.94441 -3.38914 143 ft 8 kts 58°
2026-04-21 13:45 55.94547 -3.38600 143 ft 61 kts 59°
2026-04-21 13:45 55.94878 -3.37614 143 ft 122 kts 58°
2026-04-21 13:45 55.95403 -3.36042 159 ft 170 kts 60°
2026-04-21 13:45 55.96013 -3.34192 624 ft 178 kts 60°
2026-04-21 13:46 55.96684 -3.32148 997 ft 202 kts 60°
2026-04-21 13:46 55.97415 -3.29916 1505 ft 214 kts 60°
2026-04-21 13:46 55.98283 -3.27765 2217 ft 211 kts 42°
2026-04-21 13:46 55.99598 -3.26598 2833 ft 219 kts 11°
2026-04-21 13:47 56.01159 -3.26767 3193 ft 238 kts 341°
2026-04-21 13:47 56.02608 -3.28371 3525 ft 254 kts 313°
2026-04-21 13:47 56.03554 -3.31085 3896 ft 264 kts 286°
2026-04-21 13:47 56.03773 -3.34335 4487 ft 263 kts 265°
2026-04-21 13:48 56.03910 -3.37579 5205 ft 271 kts 282°
2026-04-21 13:48 56.04822 -3.40613 5938 ft 281 kts 307°
2026-04-21 13:48 56.06376 -3.42768 6641 ft 288 kts 328°
2026-04-21 13:48 56.08047 -3.44686 7312 ft 288 kts 314°
2026-04-21 13:49 56.09188 -3.47538 8010 ft 282 kts 290°
2026-04-21 13:49 56.09582 -3.50907 8710 ft 275 kts 265°
2026-04-21 13:49 56.09175 -3.54195 9363 ft 270 kts 242°
2026-04-21 13:49 56.08047 -3.56828 9975 ft 268 kts 217°
2026-04-21 13:50 56.06410 -3.58314 10669 ft 264 kts 194°
2026-04-21 13:50 56.04577 -3.58618 11255 ft 269 kts 177°
2026-04-21 13:50 56.02688 -3.58530 11636 ft 282 kts 181°
2026-04-21 13:50 56.00682 -3.59216 11875 ft 301 kts 201°
2026-04-21 13:51 55.98909 -3.61314 12122 ft 322 kts 221°
2026-04-21 13:51 55.97571 -3.64711 12358 ft 345 kts 242°
2026-04-21 13:51 55.96924 -3.68971 12577 ft 368 kts 261°
2026-04-21 13:51 55.97009 -3.73585 12995 ft 381 kts 271°
2026-04-21 13:52 55.97007 -3.78278 13583 ft 377 kts 258°
2026-04-21 13:52 55.96345 -3.82800 14166 ft 374 kts 246°
2026-04-21 13:52 55.95525 -3.87225 14741 ft 379 kts 250°
2026-04-21 13:52 55.94850 -3.91824 15313 ft 383 kts 251°
2026-04-21 13:53 55.94206 -3.96390 15873 ft 386 kts 250°
2026-04-21 13:53 55.93195 -4.00814 16429 ft 379 kts 233°
2026-04-21 13:53 55.91454 -4.04237 16979 ft 372 kts 216°
2026-04-21 13:53 55.89335 -4.06886 17518 ft 373 kts 210°
2026-04-21 13:54 55.87172 -4.09468 18041 ft 376 kts 212°
2026-04-21 13:54 55.85050 -4.12155 18509 ft 379 kts 213°
2026-04-21 13:54 55.82883 -4.14958 18981 ft 383 kts 213°
2026-04-21 13:54 55.80744 -4.17720 19453 ft 385 kts 212°
2026-04-21 13:55 55.78549 -4.20552 19892 ft 388 kts 212°
2026-04-21 13:55 55.76332 -4.23320 20351 ft 390 kts 211°
2026-04-21 13:55 55.74110 -4.26114 20752 ft 395 kts 215°
2026-04-21 13:55 55.72160 -4.29548 21158 ft 404 kts 226°
2026-04-21 13:56 55.70567 -4.33719 21877 ft 402 kts 235°
2026-04-21 13:56 55.69300 -4.38038 22714 ft 397 kts 239°
2026-04-21 13:56 55.68157 -4.42503 23240 ft 399 kts 240°
2026-04-21 13:56 55.67042 -4.47019 23614 ft 402 kts 240°
2026-04-21 13:57 55.65899 -4.51558 24016 ft 404 kts 240°
2026-04-21 13:57 55.64745 -4.56096 24380 ft 407 kts 240°
2026-04-21 13:57 55.63586 -4.60632 24754 ft 409 kts 240°
2026-04-21 13:57 55.62395 -4.65288 25112 ft 412 kts 240°
2026-04-21 13:58 55.61209 -4.69916 25454 ft 415 kts 240°
2026-04-21 13:58 55.60016 -4.74581 25800 ft 417 kts 241°
2026-04-21 13:58 55.58935 -4.79376 26122 ft 422 kts 245°
2026-04-21 13:58 55.57988 -4.84318 26447 ft 426 kts 247°
2026-04-21 13:59 55.57100 -4.89336 26759 ft 428 kts 248°
2026-04-21 13:59 55.56205 -4.94335 27063 ft 430 kts 247°
2026-04-21 13:59 55.55281 -4.99388 27353 ft 432 kts 247°
2026-04-21 13:59 55.54354 -5.04400 27633 ft 434 kts 247°
2026-04-21 14:00 55.53404 -5.09499 27918 ft 435 kts 247°
2026-04-21 14:00 55.52486 -5.14627 28166 ft 439 kts 249°
2026-04-21 14:00 55.51590 -5.19774 28445 ft 439 kts 248°
2026-04-21 14:00 55.50652 -5.24891 28678 ft 441 kts 247°
2026-04-21 14:01 55.49679 -5.30066 28930 ft 443 kts 247°
2026-04-21 14:01 55.48698 -5.35231 29166 ft 444 kts 246°
2026-04-21 14:01 55.47711 -5.40405 29388 ft 446 kts 246°
2026-04-21 14:01 55.46719 -5.45593 29616 ft 447 kts 246°
2026-04-21 14:02 55.45726 -5.50778 29837 ft 449 kts 246°
2026-04-21 14:02 55.44735 -5.55945 30023 ft 451 kts 246°
2026-04-21 14:02 55.43720 -5.61240 30306 ft 450 kts 246°
2026-04-21 14:03 55.41723 -5.71599 30859 ft 449 kts 246°
2026-04-21 14:03 55.40710 -5.76797 31125 ft 449 kts 246°
2026-04-21 14:03 55.39695 -5.81980 31385 ft 449 kts 246°
2026-04-21 14:03 55.38671 -5.87181 31640 ft 449 kts 246°
2026-04-21 14:04 55.37648 -5.92369 31862 ft 449 kts 246°
2026-04-21 14:04 55.36617 -5.97571 32128 ft 448 kts 246°
2026-04-21 14:04 55.35593 -6.02727 32406 ft 447 kts 246°
2026-04-21 14:04 55.34568 -6.07868 32738 ft 445 kts 246°
2026-04-21 14:05 55.33537 -6.13028 32945 ft 446 kts 246°
2026-04-21 14:05 55.32514 -6.18135 33171 ft 446 kts 246°
2026-04-21 14:05 55.31494 -6.23244 33413 ft 446 kts 247°
2026-04-21 14:05 55.30516 -6.28409 33669 ft 445 kts 248°
2026-04-21 14:06 55.29537 -6.33538 33874 ft 445 kts 248°
2026-04-21 14:06 55.28536 -6.38696 34110 ft 445 kts 247°
2026-04-21 14:06 55.27529 -6.43825 34339 ft 445 kts 247°
2026-04-21 14:06 55.26509 -6.48975 34521 ft 445 kts 247°
2026-04-21 14:07 55.25488 -6.54101 34754 ft 445 kts 247°
2026-04-21 14:07 55.24464 -6.59214 34948 ft 445 kts 247°
2026-04-21 14:07 55.23435 -6.64332 35151 ft 445 kts 248°
2026-04-21 14:07 55.22403 -6.69449 35339 ft 445 kts 248°
2026-04-21 14:08 55.21380 -6.74503 35540 ft 445 kts 248°
2026-04-21 14:08 55.20342 -6.79615 35734 ft 445 kts 248°
2026-04-21 14:08 55.19305 -6.84709 35919 ft 445 kts 248°
2026-04-21 14:08 55.18262 -6.89818 36098 ft 445 kts 248°
2026-04-21 14:09 55.17219 -6.94916 36285 ft 445 kts 248°
2026-04-21 14:09 55.16171 -7.00023 36458 ft 445 kts 248°
2026-04-21 14:09 55.15119 -7.05137 36644 ft 445 kts 248°
2026-04-21 14:09 55.14068 -7.10236 36817 ft 445 kts 248°
2026-04-21 14:10 55.13013 -7.15335 36992 ft 445 kts 248°
2026-04-21 14:10 55.11957 -7.20430 37144 ft 446 kts 248°
2026-04-21 14:10 55.10913 -7.25452 37312 ft 446 kts 248°
2026-04-21 14:10 55.09840 -7.30600 37471 ft 446 kts 248°
2026-04-21 14:11 55.08794 -7.35611 37624 ft 446 kts 248°
2026-04-21 14:11 55.08072 -7.39058 37727 ft 446 kts 248°
2026-04-21 14:11 55.06662 -7.45776 37916 ft 446 kts 248°
2026-04-21 14:12 55.04512 -7.55979 37930 ft 447 kts 248°
2026-04-21 14:12 55.02727 -7.64411 37936 ft 445 kts 248°
2026-04-21 14:13 55.00208 -7.76250 37937 ft 445 kts 248°
2026-04-21 14:13 54.98048 -7.86345 37938 ft 445 kts 247°
2026-04-21 14:14 54.96244 -7.94740 37937 ft 445 kts 248°
2026-04-21 14:14 54.93715 -8.06451 37937 ft 443 kts 248°
2026-04-21 14:15 54.91541 -8.16465 37936 ft 442 kts 248°
2026-04-21 14:15 54.89366 -8.26436 37936 ft 442 kts 247°
2026-04-21 14:16 54.87179 -8.36417 37935 ft 442 kts 247°
2026-04-21 14:16 54.84982 -8.46387 37935 ft 442 kts 247°
2026-04-21 14:17 54.82780 -8.56340 37936 ft 441 kts 247°
2026-04-21 14:17 54.80571 -8.66274 37935 ft 441 kts 247°
2026-04-21 14:18 54.78360 -8.76171 37933 ft 440 kts 247°
2026-04-21 14:18 54.76151 -8.86013 37935 ft 440 kts 247°
2026-04-21 14:19 54.73912 -8.95943 37935 ft 440 kts 247°
2026-04-21 14:19 54.72102 -9.04150 37935 ft 439 kts 248°
2026-04-21 14:20 54.69514 -9.15587 37935 ft 439 kts 247°
2026-04-21 14:20 54.67252 -9.25388 37935 ft 438 kts 247°
2026-04-21 14:21 54.64989 -9.35151 37936 ft 438 kts 247°
2026-04-21 14:21 54.62722 -9.44909 37934 ft 437 kts 247°
2026-04-21 14:22 54.60220 -9.54411 37936 ft 435 kts 241°
2026-04-21 14:22 54.57236 -9.63470 37933 ft 434 kts 239°
2026-04-21 14:23 54.54209 -9.72413 37935 ft 434 kts 239°
2026-04-21 14:23 54.51666 -9.79957 37935 ft 434 kts 239°
2026-04-21 14:24 54.48150 -9.90391 37935 ft 433 kts 239°
2026-04-21 14:24 54.45128 -9.99339 37935 ft 433 kts 239°
2026-04-21 14:25 54.42165 -10.08326 37935 ft 432 kts 240°
2026-04-21 14:25 54.39686 -10.15853 37935 ft 432 kts 240°
2026-04-21 14:26 54.36724 -10.24725 37935 ft 432 kts 239°
2026-04-21 14:26 54.33721 -10.33643 37935 ft 432 kts 239°
2026-04-21 14:27 54.30699 -10.42564 37935 ft 432 kts 239°
2026-04-21 14:27 54.27673 -10.51453 37935 ft 432 kts 239°
2026-04-21 14:28 54.24638 -10.60338 37935 ft 432 kts 239°
2026-04-21 14:28 54.21619 -10.69138 37935 ft 432 kts 239°
2026-04-21 14:29 54.18577 -10.77977 37935 ft 431 kts 239°
2026-04-21 14:29 54.15533 -10.86785 37935 ft 431 kts 239°
2026-04-21 14:30 54.12482 -10.95584 37935 ft 430 kts 239°
2026-04-21 14:30 54.09440 -11.04327 37935 ft 429 kts 239°
2026-04-21 14:31 54.06375 -11.13104 37935 ft 429 kts 239°
2026-04-21 14:31 54.03317 -11.21829 37935 ft 429 kts 239°
2026-04-21 14:32 54.00259 -11.30522 37935 ft 429 kts 239°
2026-04-21 14:32 53.97213 -11.39150 37935 ft 427 kts 239°
2026-04-21 14:33 53.94153 -11.47791 37942 ft 426 kts 239°
2026-04-21 14:33 53.91093 -11.56403 37947 ft 426 kts 239°
2026-04-21 14:34 53.88021 -11.65016 37946 ft 426 kts 239°
2026-04-21 14:34 53.84952 -11.73592 37946 ft 426 kts 239°
2026-04-21 14:35 53.81864 -11.82189 37947 ft 426 kts 239°
2026-04-21 14:35 53.78800 -11.90693 37946 ft 426 kts 239°
2026-04-21 14:36 53.75708 -11.99242 37947 ft 426 kts 239°
2026-04-21 14:36 53.72609 -12.07785 37947 ft 425 kts 239°
2026-04-21 14:37 53.69510 -12.16296 37948 ft 425 kts 239°
2026-04-21 14:37 53.66424 -12.24743 37948 ft 425 kts 239°
2026-04-21 14:38 53.63325 -12.33196 37948 ft 424 kts 239°
2026-04-21 14:38 53.60216 -12.41647 37949 ft 423 kts 238°
2026-04-21 14:39 53.57111 -12.50061 37949 ft 422 kts 238°
2026-04-21 14:39 53.54012 -12.58431 37949 ft 421 kts 238°
2026-04-21 14:40 53.50910 -12.66778 37947 ft 420 kts 238°
2026-04-21 14:40 53.47830 -12.75040 37950 ft 419 kts 238°
2026-04-21 14:41 53.44714 -12.83373 37950 ft 418 kts 238°
2026-04-21 14:41 53.41633 -12.91584 37950 ft 417 kts 238°
2026-04-21 14:42 53.38540 -12.99798 37950 ft 417 kts 238°
2026-04-21 14:42 53.35439 -13.08008 37951 ft 416 kts 238°
2026-04-21 14:43 53.32345 -13.16173 37950 ft 416 kts 238°
2026-04-21 14:43 53.29238 -13.24347 37950 ft 415 kts 238°
2026-04-21 14:44 53.26141 -13.32468 37951 ft 415 kts 238°
2026-04-21 14:44 53.23034 -13.40587 37951 ft 414 kts 238°
2026-04-21 14:45 53.19934 -13.48664 37951 ft 414 kts 238°
2026-04-21 14:45 53.16837 -13.56761 37951 ft 413 kts 238°
2026-04-21 14:46 53.13779 -13.64785 37951 ft 413 kts 238°
2026-04-21 14:46 53.10663 -13.72802 37951 ft 412 kts 237°
2026-04-21 14:47 53.07531 -13.80809 37952 ft 412 kts 237°
2026-04-21 14:47 53.04403 -13.88784 37952 ft 412 kts 237°
2026-04-21 14:48 53.01456 -13.96923 37949 ft 411 kts 247°
2026-04-21 14:48 53.00615 -14.01461 37952 ft 413 kts 258°
2026-04-21 14:48 53.00289 -14.06141 37955 ft 413 kts 264°
2026-04-21 14:49 53.00093 -14.15686 37952 ft 414 kts 267°
2026-04-21 14:49 53.00058 -14.25246 37952 ft 414 kts 267°
2026-04-21 14:50 53.00045 -14.33242 37952 ft 414 kts 267°
2026-04-21 14:50 53.00033 -14.44382 37952 ft 414 kts 267°
2026-04-21 14:51 53.00128 -14.53970 37952 ft 415 kts 268°
2026-04-21 14:51 53.00149 -14.63478 37952 ft 414 kts 267°
2026-04-21 14:52 53.00121 -14.73110 37952 ft 414 kts 266°
2026-04-21 14:52 53.00080 -14.82582 37952 ft 414 kts 266°
2026-04-21 14:53 53.00036 -14.92175 37952 ft 415 kts 266°
2026-04-21 14:53 52.99996 -15.01386 37952 ft 415 kts 267°
2026-04-21 14:54 53.00156 -15.10981 37952 ft 416 kts 269°
2026-04-21 14:54 53.00351 -15.20586 37952 ft 416 kts 268°
2026-04-21 14:55 53.00517 -15.30192 37942 ft 417 kts 268°
2026-04-21 14:55 53.00667 -15.39830 37933 ft 417 kts 268°
2026-04-21 14:56 53.00805 -15.49396 37928 ft 416 kts 268°
2026-04-21 14:56 53.00947 -15.58988 37930 ft 417 kts 269°
2026-04-21 14:57 53.01170 -15.68614 37930 ft 417 kts 268°
2026-04-21 14:57 53.01348 -15.78251 37929 ft 417 kts 268°
2026-04-21 14:58 53.01499 -15.87890 37928 ft 417 kts 268°
2026-04-21 14:58 53.01633 -15.97493 37928 ft 417 kts 268°
2026-04-21 14:59 53.01756 -16.07091 37927 ft 418 kts 267°
2026-04-21 14:59 53.01869 -16.16723 37927 ft 418 kts 267°
2026-04-21 15:00 53.01973 -16.26396 37926 ft 418 kts 267°
2026-04-21 15:00 53.02070 -16.36037 37927 ft 418 kts 267°
2026-04-21 15:01 53.02158 -16.45698 37925 ft 418 kts 267°
2026-04-21 15:01 53.02239 -16.55381 37924 ft 418 kts 266°
2026-04-21 15:02 53.02312 -16.65026 37923 ft 418 kts 266°
2026-04-21 15:02 53.02377 -16.74692 37923 ft 418 kts 266°
2026-04-21 15:03 53.02434 -16.84349 37922 ft 418 kts 266°
2026-04-21 15:03 53.02483 -16.94007 37921 ft 418 kts 266°
2026-04-21 15:04 53.02525 -17.03644 37921 ft 419 kts 266°
2026-04-21 15:04 53.02558 -17.13302 37921 ft 419 kts 266°
2026-04-21 15:05 53.02584 -17.22984 37919 ft 419 kts 266°
2026-04-21 15:05 53.02608 -17.37506 37919 ft 419 kts 266°
2026-04-21 15:06 53.02614 -17.47188 37918 ft 419 kts 266°
2026-04-21 15:06 53.02613 -17.56855 37917 ft 419 kts 265°
2026-04-21 15:07 53.02603 -17.66497 37916 ft 419 kts 265°
2026-04-21 15:07 53.02586 -17.76177 37922 ft 419 kts 265°
2026-04-21 15:08 53.02561 -17.85853 37927 ft 419 kts 265°
2026-04-21 15:08 53.02528 -17.95560 37926 ft 419 kts 265°
2026-04-21 15:09 53.02487 -18.05249 37926 ft 421 kts 265°
2026-04-21 15:09 53.02438 -18.14932 37925 ft 421 kts 265°
2026-04-21 15:10 53.02381 -18.24654 37924 ft 421 kts 265°
2026-04-21 15:10 53.02316 -18.34408 37924 ft 421 kts 265°
2026-04-21 15:11 53.02244 -18.44115 37923 ft 421 kts 264°
2026-04-21 15:11 53.02163 -18.53868 37922 ft 421 kts 264°
2026-04-21 15:12 53.02075 -18.63533 37921 ft 421 kts 264°
2026-04-21 15:12 53.01978 -18.73269 37921 ft 421 kts 264°
2026-04-21 15:13 53.01892 -18.81369 37920 ft 421 kts 264°
2026-04-21 15:13 53.01761 -18.92772 37919 ft 422 kts 264°
2026-04-21 15:14 53.01640 -19.02520 37919 ft 422 kts 264°
2026-04-21 15:14 53.01512 -19.12273 37918 ft 423 kts 264°
2026-04-21 15:15 53.01375 -19.22019 37917 ft 422 kts 264°
2026-04-21 15:15 53.01232 -19.31724 37916 ft 423 kts 264°
2026-04-21 15:16 53.01079 -19.41485 37916 ft 423 kts 263°
2026-04-21 15:16 53.00961 -19.51249 37915 ft 423 kts 264°
2026-04-21 15:17 53.00842 -19.59377 37914 ft 423 kts 263°
2026-04-21 15:17 53.00655 -19.69113 37914 ft 423 kts 263°
2026-04-21 15:18 53.00416 -19.80559 37913 ft 423 kts 263°
2026-04-21 15:18 53.00242 -19.88685 37912 ft 423 kts 263°
2026-04-21 15:19 53.00035 -19.98437 37912 ft 424 kts 263°
2026-04-21 15:19 53.00231 -20.08310 37911 ft 431 kts 269°
2026-04-21 15:20 53.00667 -20.18233 37910 ft 432 kts 269°
2026-04-21 15:20 53.01064 -20.28140 37910 ft 432 kts 268°
2026-04-21 15:21 53.01437 -20.38142 37863 ft 431 kts 268°
2026-04-21 15:21 53.01847 -20.49690 37830 ft 432 kts 268°
2026-04-21 15:22 53.02139 -20.58049 37819 ft 433 kts 269°
2026-04-21 15:22 53.02578 -20.67945 37813 ft 433 kts 269°
2026-04-21 15:23 53.02978 -20.77946 37812 ft 434 kts 268°
2026-04-21 15:23 53.03348 -20.87961 37810 ft 434 kts 268°
2026-04-21 15:24 53.03699 -20.97977 37809 ft 435 kts 268°
2026-04-21 15:24 53.04037 -21.08002 37808 ft 435 kts 268°
2026-04-21 15:25 53.04366 -21.18073 37806 ft 436 kts 268°
2026-04-21 15:25 53.04685 -21.28140 37805 ft 437 kts 268°
2026-04-21 15:26 53.04996 -21.38199 37804 ft 438 kts 268°
2026-04-21 15:26 53.05301 -21.48380 37803 ft 438 kts 268°
2026-04-21 15:27 53.05594 -21.58465 37801 ft 439 kts 268°
2026-04-21 15:27 53.05879 -21.68571 37800 ft 439 kts 268°
2026-04-21 15:28 53.06158 -21.78724 37799 ft 440 kts 268°
2026-04-21 15:28 53.06427 -21.88872 37798 ft 440 kts 268°
2026-04-21 15:29 53.06688 -21.99031 37797 ft 440 kts 267°
2026-04-21 15:29 53.06941 -22.09232 37796 ft 445 kts 268°
2026-04-21 15:30 53.07188 -22.19556 37795 ft 445 kts 267°
2026-04-21 15:30 53.07426 -22.29837 37793 ft 445 kts 267°
2026-04-21 15:31 53.07654 -22.40112 37793 ft 445 kts 267°
2026-04-21 15:31 53.07873 -22.50347 37792 ft 445 kts 267°
2026-04-21 15:32 53.08085 -22.60687 37790 ft 445 kts 267°
2026-04-21 15:32 53.08286 -22.70935 37811 ft 445 kts 267°
2026-04-21 15:33 53.08479 -22.81230 37822 ft 446 kts 267°
2026-04-21 15:33 53.08664 -22.91553 37823 ft 446 kts 267°
2026-04-21 15:34 53.08840 -23.01872 37822 ft 446 kts 267°
2026-04-21 15:34 53.09007 -23.12218 37821 ft 447 kts 267°
2026-04-21 15:35 53.09166 -23.22566 37820 ft 448 kts 267°
2026-04-21 15:35 53.09315 -23.32866 37820 ft 448 kts 267°
2026-04-21 15:36 53.09456 -23.43298 37819 ft 448 kts 266°
2026-04-21 15:36 53.09587 -23.53649 37818 ft 449 kts 267°
2026-04-21 15:37 53.09710 -23.63985 37815 ft 449 kts 266°
2026-04-21 15:37 53.09824 -23.74353 37814 ft 449 kts 266°
2026-04-21 15:38 53.09928 -23.84747 37814 ft 449 kts 266°
2026-04-21 15:38 53.10024 -23.95148 37813 ft 449 kts 266°
2026-04-21 15:39 53.10111 -24.05549 37812 ft 451 kts 266°
2026-04-21 15:39 53.10189 -24.15994 37820 ft 451 kts 266°
2026-04-21 15:40 53.10258 -24.26448 37826 ft 451 kts 266°
2026-04-21 15:40 53.10318 -24.36917 37826 ft 452 kts 266°
2026-04-21 15:41 53.10369 -24.47365 37825 ft 452 kts 266°
2026-04-21 15:41 53.10410 -24.57816 37825 ft 452 kts 266°
2026-04-21 15:42 53.10443 -24.68271 37824 ft 452 kts 266°
2026-04-21 15:42 53.10466 -24.78714 37823 ft 452 kts 266°
2026-04-21 15:43 53.10480 -24.89174 37823 ft 452 kts 266°
2026-04-21 15:43 53.10485 -24.99558 37822 ft 452 kts 266°
2026-04-21 15:44 53.10481 -25.10042 37821 ft 453 kts 266°
2026-04-21 15:44 53.10467 -25.20527 37823 ft 452 kts 266°
2026-04-21 15:45 53.10445 -25.31009 37827 ft 452 kts 266°
2026-04-21 15:45 53.10413 -25.41407 37827 ft 452 kts 266°
2026-04-21 15:46 53.10372 -25.51886 37826 ft 453 kts 266°
2026-04-21 15:46 53.10322 -25.62359 37827 ft 453 kts 266°
2026-04-21 15:47 53.10263 -25.72853 37825 ft 453 kts 266°
2026-04-21 15:47 53.10194 -25.83308 37824 ft 453 kts 266°
2026-04-21 15:48 53.10116 -25.93817 37824 ft 453 kts 266°
2026-04-21 15:48 53.10029 -26.04307 37824 ft 454 kts 266°
2026-04-21 15:49 53.09932 -26.14812 37824 ft 454 kts 266°
2026-04-21 15:49 53.09827 -26.25309 37824 ft 454 kts 266°
2026-04-21 15:50 53.09712 -26.35808 37824 ft 454 kts 265°
2026-04-21 15:50 53.09589 -26.46230 37824 ft 454 kts 266°
2026-04-21 15:51 53.09455 -26.56746 37825 ft 454 kts 265°
2026-04-21 15:51 53.09313 -26.67226 37824 ft 454 kts 265°
2026-04-21 15:52 53.09161 -26.77735 37824 ft 454 kts 265°
2026-04-21 15:52 53.09000 -26.88265 37817 ft 454 kts 265°
2026-04-21 15:53 53.08829 -26.98781 37815 ft 454 kts 265°
2026-04-21 15:53 53.08650 -27.09227 37816 ft 454 kts 265°
2026-04-21 15:54 53.08460 -27.19790 37816 ft 454 kts 265°
2026-04-21 15:54 53.08262 -27.30309 37816 ft 455 kts 265°
2026-04-21 15:55 53.08056 -27.40722 37816 ft 454 kts 265°
2026-04-21 15:55 53.07840 -27.51213 37816 ft 454 kts 265°
2026-04-21 15:56 53.07614 -27.61725 37817 ft 455 kts 265°
2026-04-21 15:56 53.07377 -27.72285 37817 ft 455 kts 265°
2026-04-21 15:57 53.07133 -27.82766 37817 ft 455 kts 265°
2026-04-21 15:57 53.06880 -27.93238 37817 ft 455 kts 265°
2026-04-21 15:58 53.06615 -28.03830 37817 ft 455 kts 265°
2026-04-21 15:58 53.06342 -28.14353 37818 ft 456 kts 265°
2026-04-21 15:59 53.06108 -28.23108 37818 ft 456 kts 265°
2026-04-21 15:59 53.05768 -28.35416 37818 ft 456 kts 265°
2026-04-21 16:00 53.05469 -28.45869 37819 ft 455 kts 265°
2026-04-21 16:00 53.05159 -28.56394 37819 ft 456 kts 265°
2026-04-21 16:01 53.04840 -28.66913 37819 ft 455 kts 265°
2026-04-21 16:01 53.04512 -28.77432 37819 ft 456 kts 265°
2026-04-21 16:02 53.04231 -28.86175 37820 ft 456 kts 265°
2026-04-21 16:02 53.03827 -28.98453 37820 ft 456 kts 265°
2026-04-21 16:03 53.03471 -29.08965 37820 ft 456 kts 265°
2026-04-21 16:03 53.03107 -29.19436 37820 ft 456 kts 264°
2026-04-21 16:04 53.02793 -29.28253 37822 ft 456 kts 264°
2026-04-21 16:04 53.02411 -29.38761 37821 ft 456 kts 264°
2026-04-21 16:05 53.02042 -29.49276 37821 ft 457 kts 265°
2026-04-21 16:05 53.01683 -29.59740 37821 ft 456 kts 264°
2026-04-21 16:06 53.01258 -29.70251 37822 ft 456 kts 264°
2026-04-21 16:06 53.00817 -29.80759 37822 ft 456 kts 264°
2026-04-21 16:07 53.00370 -29.91274 37822 ft 457 kts 264°
2026-04-21 16:07 53.00078 -30.01805 37823 ft 458 kts 269°
2026-04-21 16:08 53.00645 -30.17625 37823 ft 458 kts 272°
2026-04-21 16:09 53.01066 -30.28188 37822 ft 458 kts 272°
2026-04-21 16:09 53.01458 -30.38734 37821 ft 458 kts 272°
2026-04-21 16:10 53.01831 -30.49285 37821 ft 457 kts 272°
2026-04-21 16:10 53.02212 -30.59827 37821 ft 457 kts 273°
2026-04-21 16:11 53.02674 -30.70308 37821 ft 457 kts 272°
2026-04-21 16:11 53.03087 -30.80867 37821 ft 457 kts 272°
2026-04-21 16:12 53.03469 -30.91404 37821 ft 457 kts 272°
2026-04-21 16:12 53.03834 -31.01953 37821 ft 457 kts 272°
2026-04-21 16:13 53.04185 -31.12504 37821 ft 457 kts 272°
2026-04-21 16:13 53.04523 -31.23015 37851 ft 456 kts 272°
2026-04-21 16:14 53.04852 -31.33514 37870 ft 456 kts 272°
2026-04-21 16:14 53.05171 -31.44032 37879 ft 456 kts 272°
2026-04-21 16:15 53.05482 -31.54606 37880 ft 457 kts 272°
2026-04-21 16:15 53.05782 -31.65114 37882 ft 456 kts 272°
2026-04-21 16:16 53.06073 -31.75611 37883 ft 456 kts 271°
2026-04-21 16:16 53.06355 -31.86144 37884 ft 456 kts 271°
2026-04-21 16:17 53.06627 -31.96654 37885 ft 456 kts 271°
2026-04-21 16:17 53.06890 -32.07198 37886 ft 455 kts 272°
2026-04-21 16:18 53.07144 -32.17684 37889 ft 455 kts 272°
2026-04-21 16:18 53.07388 -32.28215 37889 ft 455 kts 272°
2026-04-21 16:19 53.07624 -32.38756 37890 ft 456 kts 272°
2026-04-21 16:19 53.07851 -32.49302 37891 ft 456 kts 272°
2026-04-21 16:20 53.08068 -32.59849 37892 ft 456 kts 271°
2026-04-21 16:20 53.08275 -32.70385 37893 ft 456 kts 271°
2026-04-21 16:21 53.08473 -32.80910 37895 ft 456 kts 271°
2026-04-21 16:21 53.08661 -32.91388 37896 ft 456 kts 271°
2026-04-21 16:22 53.08842 -33.01990 37897 ft 456 kts 271°
2026-04-21 16:22 53.09011 -33.12489 37899 ft 456 kts 271°
2026-04-21 16:23 53.09172 -33.23008 37900 ft 455 kts 271°
2026-04-21 16:23 53.09324 -33.33539 37901 ft 455 kts 271°
2026-04-21 16:24 53.09466 -33.44095 37903 ft 455 kts 271°
2026-04-21 16:24 53.09599 -33.54581 37904 ft 455 kts 271°
2026-04-21 16:25 53.09723 -33.65182 37905 ft 456 kts 271°
2026-04-21 16:25 53.09837 -33.75655 37907 ft 456 kts 271°
2026-04-21 16:26 53.09942 -33.86202 37908 ft 456 kts 271°
2026-04-21 16:26 53.10038 -33.96759 37910 ft 456 kts 271°
2026-04-21 16:27 53.10124 -34.07286 37911 ft 455 kts 271°
2026-04-21 16:27 53.10202 -34.17810 37913 ft 454 kts 271°
2026-04-21 16:28 53.10270 -34.28338 37914 ft 454 kts 271°
2026-04-21 16:28 53.10328 -34.38853 37916 ft 454 kts 271°
2026-04-21 16:29 53.10377 -34.49293 37917 ft 454 kts 271°
2026-04-21 16:29 53.10417 -34.59798 37918 ft 454 kts 271°
2026-04-21 16:30 53.10448 -34.70355 37920 ft 453 kts 271°
2026-04-21 16:30 53.10469 -34.80785 37922 ft 453 kts 271°
2026-04-21 16:31 53.10482 -34.91264 37923 ft 452 kts 271°
2026-04-21 16:31 53.10485 -35.01739 37925 ft 452 kts 271°
2026-04-21 16:32 53.10479 -35.12227 37926 ft 453 kts 271°
2026-04-21 16:32 53.10463 -35.22677 37928 ft 452 kts 271°
2026-04-21 16:33 53.10439 -35.33135 37930 ft 452 kts 271°
2026-04-21 16:33 53.10405 -35.43613 37930 ft 452 kts 271°
2026-04-21 16:34 53.10363 -35.54011 37934 ft 452 kts 271°
2026-04-21 16:34 53.10311 -35.64453 37935 ft 451 kts 271°
2026-04-21 16:35 53.10250 -35.74881 37937 ft 451 kts 271°
2026-04-21 16:35 53.10180 -35.85337 37936 ft 452 kts 270°
2026-04-21 16:36 53.10100 -35.95805 37886 ft 451 kts 270°
2026-04-21 16:36 53.10011 -36.06253 37859 ft 450 kts 271°
2026-04-21 16:37 53.09915 -36.16582 37848 ft 449 kts 271°
2026-04-21 16:37 53.09809 -36.26988 37847 ft 449 kts 271°
2026-04-21 16:38 53.09694 -36.37363 37847 ft 449 kts 270°
2026-04-21 16:38 53.09570 -36.47748 37848 ft 448 kts 270°
2026-04-21 16:39 53.09437 -36.58113 37849 ft 448 kts 270°
2026-04-21 16:39 53.09296 -36.68479 37850 ft 448 kts 270°
2026-04-21 16:40 53.09146 -36.78776 37851 ft 448 kts 270°
2026-04-21 16:40 53.08986 -36.89102 37852 ft 447 kts 270°
2026-04-21 16:41 53.08847 -36.97716 37853 ft 447 kts 270°
2026-04-21 16:41 53.08641 -37.09786 37854 ft 446 kts 270°
2026-04-21 16:42 53.08455 -37.20087 37860 ft 445 kts 270°
2026-04-21 16:42 53.08260 -37.30400 37861 ft 446 kts 270°
2026-04-21 16:43 53.08057 -37.40675 37862 ft 445 kts 270°
2026-04-21 16:43 53.07845 -37.50957 37863 ft 445 kts 270°
2026-04-21 16:44 53.07625 -37.61207 37864 ft 445 kts 270°
2026-04-21 16:44 53.07395 -37.71511 37864 ft 444 kts 270°
2026-04-21 16:45 53.07157 -37.81786 37865 ft 444 kts 270°
2026-04-21 16:45 53.06910 -37.92036 37866 ft 444 kts 270°
2026-04-21 16:46 53.06654 -38.02311 37867 ft 444 kts 270°
2026-04-21 16:46 53.06390 -38.12554 37867 ft 442 kts 270°
2026-04-21 16:47 53.06164 -38.21039 37868 ft 442 kts 270°
2026-04-21 16:47 53.05839 -38.32914 37870 ft 441 kts 270°
2026-04-21 16:48 53.05548 -38.43151 37870 ft 441 kts 270°
2026-04-21 16:48 53.05252 -38.53278 37872 ft 441 kts 270°
2026-04-21 16:49 53.04945 -38.63484 37873 ft 441 kts 270°
2026-04-21 16:49 53.04685 -38.71927 37873 ft 441 kts 270°
2026-04-21 16:50 53.04308 -38.83807 37875 ft 441 kts 270°
2026-04-21 16:50 53.03976 -38.93989 37876 ft 440 kts 270°
2026-04-21 16:51 53.03694 -39.02407 37876 ft 439 kts 270°
2026-04-21 16:51 53.03287 -39.14278 37878 ft 440 kts 270°
2026-04-21 16:52 53.02933 -39.24363 37879 ft 439 kts 270°
2026-04-21 16:52 53.02627 -39.32849 37881 ft 439 kts 269°
2026-04-21 16:53 53.02255 -39.42979 37882 ft 440 kts 269°
2026-04-21 16:53 53.01868 -39.54747 37883 ft 439 kts 270°
2026-04-21 16:54 53.01545 -39.63221 37884 ft 439 kts 269°
2026-04-21 16:54 53.01129 -39.73327 37886 ft 439 kts 269°
2026-04-21 16:55 53.00703 -39.83443 37887 ft 439 kts 269°
2026-04-21 16:55 53.00276 -39.93497 37888 ft 439 kts 269°
2026-04-21 16:56 52.99448 -40.03561 37891 ft 442 kts 261°
2026-04-21 16:56 52.97965 -40.13477 37892 ft 441 kts 259°
2026-04-21 16:57 52.96428 -40.23330 37894 ft 441 kts 259°
2026-04-21 16:57 52.94883 -40.33196 37896 ft 441 kts 259°
2026-04-21 16:58 52.93343 -40.42976 37898 ft 441 kts 259°
2026-04-21 16:58 52.91783 -40.52819 37901 ft 441 kts 259°
2026-04-21 16:59 52.90290 -40.62712 37903 ft 441 kts 260°
2026-04-21 16:59 52.88807 -40.72520 37906 ft 441 kts 260°
2026-04-21 17:00 52.87285 -40.82333 37908 ft 440 kts 259°
2026-04-21 17:00 52.86002 -40.90494 37910 ft 440 kts 259°
2026-04-21 17:01 52.84182 -41.01960 37913 ft 441 kts 259°
2026-04-21 17:01 52.82616 -41.11742 37916 ft 440 kts 259°
2026-04-21 17:02 52.81039 -41.21530 37918 ft 440 kts 259°
2026-04-21 17:02 52.79457 -41.31287 37921 ft 439 kts 259°
2026-04-21 17:03 52.77877 -41.40974 37923 ft 439 kts 259°
2026-04-21 17:03 52.76273 -41.50750 37926 ft 439 kts 259°
2026-04-21 17:04 52.74676 -41.60431 37929 ft 439 kts 259°
2026-04-21 17:04 52.73067 -41.70130 37931 ft 438 kts 259°
2026-04-21 17:05 52.71447 -41.79837 37934 ft 438 kts 259°
2026-04-21 17:05 52.69825 -41.89500 37937 ft 438 kts 259°
2026-04-21 17:06 52.68193 -41.99175 37940 ft 438 kts 259°
2026-04-21 17:06 52.66556 -42.08821 37943 ft 436 kts 259°
2026-04-21 17:07 52.64927 -42.18366 37946 ft 436 kts 259°
2026-04-21 17:07 52.63276 -42.27992 37949 ft 436 kts 259°
2026-04-21 17:08 52.61621 -42.37588 37952 ft 436 kts 259°
2026-04-21 17:08 52.59957 -42.47179 37955 ft 436 kts 259°
2026-04-21 17:09 52.57456 -42.61506 37960 ft 435 kts 259°
2026-04-21 17:09 52.55777 -42.71057 37964 ft 436 kts 259°
2026-04-21 17:10 52.54090 -42.80602 37967 ft 435 kts 259°
2026-04-21 17:10 52.52391 -42.90163 37970 ft 435 kts 259°
2026-04-21 17:11 52.50686 -42.99709 37973 ft 435 kts 259°
2026-04-21 17:11 52.48977 -43.09228 37977 ft 435 kts 259°
2026-04-21 17:12 52.47262 -43.18732 37981 ft 434 kts 259°
2026-04-21 17:12 52.45541 -43.28217 37984 ft 434 kts 259°
2026-04-21 17:13 52.43815 -43.37682 37987 ft 434 kts 259°
2026-04-21 17:13 52.42090 -43.47093 37991 ft 433 kts 259°
2026-04-21 17:14 52.40351 -43.56527 37995 ft 432 kts 259°
2026-04-21 17:14 52.38607 -43.65944 37998 ft 433 kts 259°
2026-04-21 17:15 52.36856 -43.75357 38002 ft 432 kts 259°
2026-04-21 17:15 52.35103 -43.84726 38006 ft 432 kts 259°
2026-04-21 17:16 52.33336 -43.94123 38010 ft 432 kts 259°
2026-04-21 17:16 52.31563 -44.03505 38013 ft 432 kts 259°
2026-04-21 17:17 52.29785 -44.12871 38017 ft 432 kts 259°
2026-04-21 17:17 52.27997 -44.22239 38021 ft 432 kts 259°
2026-04-21 17:18 52.26202 -44.31598 38025 ft 432 kts 259°
2026-04-21 17:18 52.24410 -44.40894 38029 ft 431 kts 259°
2026-04-21 17:19 52.22602 -44.50228 38033 ft 431 kts 259°
2026-04-21 17:19 52.20787 -44.59556 38037 ft 431 kts 259°
2026-04-21 17:20 52.18966 -44.68867 38041 ft 430 kts 259°
2026-04-21 17:20 52.17141 -44.78152 38045 ft 430 kts 259°
2026-04-21 17:21 52.15311 -44.87422 38050 ft 430 kts 259°
2026-04-21 17:21 52.13483 -44.96632 38053 ft 429 kts 259°
2026-04-21 17:22 52.11634 -45.05908 38058 ft 428 kts 259°
2026-04-21 17:22 52.09800 -45.15066 38062 ft 427 kts 259°
2026-04-21 17:23 52.07944 -45.24286 38066 ft 426 kts 259°
2026-04-21 17:23 52.06109 -45.33365 38071 ft 425 kts 259°
2026-04-21 17:24 52.04256 -45.42485 38075 ft 425 kts 259°
2026-04-21 17:24 52.02398 -45.51590 38119 ft 424 kts 259°
2026-04-21 17:25 52.00535 -45.60680 38152 ft 424 kts 259°
2026-04-21 17:25 51.98666 -45.69756 38168 ft 423 kts 259°
2026-04-21 17:26 51.96795 -45.78799 38176 ft 423 kts 259°
2026-04-21 17:26 51.94926 -45.87790 38180 ft 423 kts 259°
2026-04-21 17:27 51.93041 -45.96824 38182 ft 423 kts 259°
2026-04-21 17:27 51.91152 -46.05828 38185 ft 423 kts 259°
2026-04-21 17:28 51.89245 -46.14884 38188 ft 423 kts 259°
2026-04-21 17:28 51.87345 -46.23861 38190 ft 423 kts 259°
2026-04-21 17:29 51.85434 -46.32856 38193 ft 422 kts 259°
2026-04-21 17:29 51.83515 -46.41843 38196 ft 422 kts 259°
2026-04-21 17:30 51.81608 -46.50738 38198 ft 421 kts 259°
2026-04-21 17:30 51.79672 -46.59729 38201 ft 421 kts 259°
2026-04-21 17:31 51.77750 -46.68613 38203 ft 420 kts 259°
2026-04-21 17:31 51.75818 -46.77508 38206 ft 420 kts 260°
2026-04-21 17:32 51.73881 -46.86385 38208 ft 419 kts 260°
2026-04-21 17:32 51.71935 -46.95266 38211 ft 420 kts 260°
2026-04-21 17:33 51.69992 -47.04097 38213 ft 419 kts 260°
2026-04-21 17:33 51.68030 -47.12978 38216 ft 418 kts 260°
2026-04-21 17:34 51.66083 -47.21748 38218 ft 418 kts 260°
2026-04-21 17:34 51.64124 -47.30541 38221 ft 418 kts 260°
2026-04-21 17:35 51.62149 -47.39365 38223 ft 419 kts 260°
2026-04-21 17:35 51.60170 -47.48169 38225 ft 419 kts 260°
2026-04-21 17:36 51.58175 -47.57006 38228 ft 418 kts 260°
2026-04-21 17:36 51.56186 -47.65782 38230 ft 418 kts 260°
2026-04-21 17:37 51.54530 -47.73061 38232 ft 418 kts 260°
2026-04-21 17:37 51.52192 -47.83297 38235 ft 418 kts 260°
2026-04-21 17:38 51.50179 -47.92068 38237 ft 419 kts 260°
2026-04-21 17:38 51.48160 -48.00830 38239 ft 419 kts 260°
2026-04-21 17:39 51.46138 -48.09570 38241 ft 417 kts 260°
2026-04-21 17:39 51.44120 -48.18254 38243 ft 415 kts 260°
2026-04-21 17:40 51.42444 -48.25444 38245 ft 415 kts 260°
2026-04-21 17:40 51.40077 -48.35556 38246 ft 414 kts 260°
2026-04-21 17:41 51.38033 -48.44238 38248 ft 419 kts 260°
2026-04-21 17:41 51.35987 -48.52913 38251 ft 418 kts 260°
2026-04-21 17:42 51.34269 -48.60154 38251 ft 413 kts 260°
2026-04-21 17:42 51.32243 -48.68691 38257 ft 412 kts 260°
2026-04-21 17:43 51.30198 -48.77260 38256 ft 417 kts 260°
2026-04-21 17:43 51.28124 -48.85902 38260 ft 416 kts 260°
2026-04-21 17:44 51.26051 -48.94493 38259 ft 411 kts 260°
2026-04-21 17:44 51.24017 -49.02924 38265 ft 405 kts 260°
2026-04-21 17:45 51.21975 -49.11348 38264 ft 407 kts 260°
2026-04-21 17:45 51.19932 -49.19747 38269 ft 406 kts 260°
2026-04-21 17:46 51.17885 -49.28123 38273 ft 405 kts 260°
2026-04-21 17:46 51.15852 -49.36406 38268 ft 403 kts 260°
2026-04-21 17:47 51.13803 -49.44725 38273 ft 404 kts 260°
2026-04-21 17:47 51.11421 -49.54449 38272 ft 402 kts 261°
2026-04-21 17:48 51.09737 -49.61367 38277 ft 404 kts 260°
2026-04-21 17:48 51.07664 -49.69673 38277 ft 405 kts 260°
2026-04-21 17:49 51.05553 -49.78080 38288 ft 412 kts 260°
2026-04-21 17:49 51.03402 -49.86552 38281 ft 412 kts 259°
2026-04-21 17:50 51.01285 -49.94910 38283 ft 405 kts 260°
2026-04-21 17:50 50.99221 -50.03141 38286 ft 397 kts 261°
2026-04-21 17:51 50.97268 -50.11277 38284 ft 393 kts 261°
2026-04-21 17:51 50.95291 -50.19426 38288 ft 399 kts 261°
2026-04-21 17:52 50.93290 -50.27642 38285 ft 397 kts 261°
2026-04-21 17:52 50.91303 -50.35758 38290 ft 394 kts 261°
2026-04-21 17:53 50.89305 -50.43875 38289 ft 396 kts 261°
2026-04-21 17:53 50.87313 -50.51999 38293 ft 394 kts 262°
2026-04-21 17:54 50.85392 -50.60085 38293 ft 392 kts 262°
2026-04-21 17:54 50.83445 -50.68106 38294 ft 394 kts 261°
2026-04-21 17:55 50.81454 -50.76234 38296 ft 393 kts 261°
2026-04-21 17:55 50.79484 -50.84200 38300 ft 392 kts 261°
2026-04-21 17:56 50.77472 -50.92281 38299 ft 397 kts 261°
2026-04-21 17:56 50.75439 -51.00429 38299 ft 397 kts 261°
2026-04-21 17:57 50.73429 -51.08499 38299 ft 392 kts 261°
2026-04-21 17:57 50.71421 -51.16469 38301 ft 390 kts 261°
2026-04-21 17:58 50.69413 -51.24427 38303 ft 391 kts 261°
2026-04-21 17:58 50.67400 -51.32377 38318 ft 390 kts 261°
2026-04-21 17:59 50.65384 -51.40313 38325 ft 390 kts 261°
2026-04-21 17:59 50.63377 -51.48189 38326 ft 390 kts 261°
2026-04-21 18:00 50.61376 -51.56137 38326 ft 390 kts 261°
2026-04-21 18:00 50.59389 -51.63979 38327 ft 390 kts 261°
2026-04-21 18:01 50.57338 -51.71908 38328 ft 392 kts 261°
2026-04-21 18:01 50.55274 -51.79830 38328 ft 391 kts 261°
2026-04-21 18:02 50.53201 -51.87760 38329 ft 391 kts 261°
2026-04-21 18:02 50.51130 -51.95656 38328 ft 393 kts 259°
2026-04-21 18:03 50.48390 -52.03308 38330 ft 411 kts 249°
2026-04-21 18:03 50.45071 -52.10567 38330 ft 412 kts 248°
2026-04-21 18:04 50.41684 -52.17815 38320 ft 413 kts 247°
2026-04-21 18:04 50.38279 -52.25071 38318 ft 413 kts 247°
2026-04-21 18:05 50.34869 -52.32311 38320 ft 413 kts 247°
2026-04-21 18:05 50.31458 -52.39531 38322 ft 413 kts 247°
2026-04-21 18:06 50.28076 -52.46769 38325 ft 411 kts 248°
2026-04-21 18:06 50.24711 -52.54026 38325 ft 412 kts 248°
2026-04-21 18:07 50.21331 -52.61238 38327 ft 411 kts 247°
2026-04-21 18:07 50.17940 -52.68427 38329 ft 411 kts 247°
2026-04-21 18:08 50.14536 -52.75606 38340 ft 411 kts 247°
2026-04-21 18:08 50.11146 -52.82733 38356 ft 412 kts 247°
2026-04-21 18:09 50.07735 -52.89881 38363 ft 410 kts 246°
2026-04-21 18:09 50.04324 -52.97006 38364 ft 411 kts 246°
2026-04-21 18:10 50.00906 -53.04125 38366 ft 411 kts 246°
2026-04-21 18:10 49.97480 -53.11243 38366 ft 413 kts 246°
2026-04-21 18:11 49.94041 -53.18370 38367 ft 412 kts 246°
2026-04-21 18:11 49.90597 -53.25485 38368 ft 411 kts 246°
2026-04-21 18:12 49.87161 -53.32568 38369 ft 412 kts 246°
2026-04-21 18:12 49.83727 -53.39624 38370 ft 412 kts 246°
2026-04-21 18:13 49.80583 -53.46069 38370 ft 412 kts 245°
2026-04-21 18:13 49.77122 -53.53147 38371 ft 412 kts 245°
2026-04-21 18:14 49.71938 -53.63713 38372 ft 411 kts 245°
2026-04-21 18:15 49.68474 -53.70747 38362 ft 411 kts 245°
2026-04-21 18:15 49.65003 -53.77779 38354 ft 411 kts 245°
2026-04-21 18:16 49.61540 -53.84778 38356 ft 411 kts 245°
2026-04-21 18:16 49.58079 -53.91750 38358 ft 411 kts 245°
2026-04-21 18:17 49.54597 -53.98749 38361 ft 411 kts 245°
2026-04-21 18:17 49.51120 -54.05719 38363 ft 410 kts 245°
2026-04-21 18:18 49.47642 -54.12673 38365 ft 410 kts 245°
2026-04-21 18:18 49.44157 -54.19623 38367 ft 410 kts 245°
2026-04-21 18:19 49.40673 -54.26552 38369 ft 410 kts 245°
2026-04-21 18:19 49.37180 -54.33482 38371 ft 411 kts 244°
2026-04-21 18:20 49.33677 -54.40411 38373 ft 411 kts 244°
2026-04-21 18:20 49.30167 -54.47340 38374 ft 410 kts 244°
2026-04-21 18:21 49.26674 -54.54214 38375 ft 409 kts 244°
2026-04-21 18:21 49.23168 -54.61097 38378 ft 409 kts 244°
2026-04-21 18:22 49.19661 -54.67965 38380 ft 410 kts 244°
2026-04-21 18:22 49.16169 -54.74784 38380 ft 409 kts 244°
2026-04-21 18:23 49.12662 -54.81616 38380 ft 408 kts 244°
2026-04-21 18:23 49.09746 -54.87284 38382 ft 409 kts 244°
2026-04-21 18:24 49.06229 -54.94102 38382 ft 409 kts 244°
2026-04-21 18:24 49.02116 -55.02056 38383 ft 409 kts 244°
2026-04-21 18:25 48.98596 -55.08845 38384 ft 407 kts 243°
2026-04-21 18:25 48.95097 -55.15573 38386 ft 408 kts 243°
2026-04-21 18:26 48.91551 -55.22377 38385 ft 408 kts 243°
2026-04-21 18:26 48.88026 -55.29122 38386 ft 408 kts 243°
2026-04-21 18:27 48.85084 -55.34740 38388 ft 408 kts 243°
2026-04-21 18:27 48.81540 -55.41491 38390 ft 407 kts 243°
2026-04-21 18:28 48.78008 -55.48201 38392 ft 408 kts 243°
2026-04-21 18:28 48.73886 -55.56013 38394 ft 408 kts 242°
2026-04-21 18:29 48.70339 -55.62715 38397 ft 408 kts 242°
2026-04-21 18:29 48.66779 -55.69426 38399 ft 408 kts 242°
2026-04-21 18:30 48.63814 -55.75003 38402 ft 408 kts 242°
2026-04-21 18:30 48.60255 -55.81680 38404 ft 409 kts 242°
2026-04-21 18:31 48.56680 -55.88371 38407 ft 408 kts 242°
2026-04-21 18:31 48.53123 -55.95013 38410 ft 408 kts 242°
2026-04-21 18:32 48.49574 -56.01623 38412 ft 408 kts 242°
2026-04-21 18:32 48.45997 -56.08268 38415 ft 407 kts 242°
2026-04-21 18:33 48.42434 -56.14871 38418 ft 407 kts 241°
2026-04-21 18:33 48.38859 -56.21482 38425 ft 407 kts 241°
2026-04-21 18:34 48.35271 -56.28098 38436 ft 407 kts 241°
2026-04-21 18:34 48.31690 -56.34686 38441 ft 407 kts 241°
2026-04-21 18:35 48.28701 -56.40171 38444 ft 408 kts 241°
2026-04-21 18:35 48.24523 -56.47822 38447 ft 408 kts 241°
2026-04-21 18:36 48.20316 -56.55503 38450 ft 408 kts 241°
2026-04-21 18:36 48.17297 -56.61002 38452 ft 408 kts 241°
2026-04-21 18:37 48.13711 -56.67518 38455 ft 408 kts 241°
2026-04-21 18:37 48.10108 -56.74050 38457 ft 406 kts 241°
2026-04-21 18:38 48.06499 -56.80576 38460 ft 407 kts 241°
2026-04-21 18:38 48.02889 -56.87090 38463 ft 407 kts 241°
2026-04-21 18:39 47.99272 -56.93599 38464 ft 408 kts 240°
2026-04-21 18:39 47.95633 -57.00134 38468 ft 410 kts 240°
2026-04-21 18:40 47.91996 -57.06646 38470 ft 410 kts 240°
2026-04-21 18:40 47.88967 -57.12059 38472 ft 409 kts 240°
2026-04-21 18:41 47.84702 -57.19662 38475 ft 409 kts 240°
2026-04-21 18:41 47.81143 -57.25991 38477 ft 408 kts 239°
2026-04-21 18:42 47.77633 -57.32217 38479 ft 408 kts 239°
2026-04-21 18:42 47.73986 -57.38671 38485 ft 408 kts 239°
2026-04-21 18:43 47.70327 -57.45132 38484 ft 409 kts 239°
2026-04-21 18:43 47.66696 -57.51528 38483 ft 407 kts 239°
2026-04-21 18:44 47.63035 -57.57960 38485 ft 408 kts 239°
2026-04-21 18:44 47.59377 -57.64373 38485 ft 408 kts 239°
2026-04-21 18:45 47.55722 -57.70766 38486 ft 408 kts 239°
2026-04-21 18:45 47.52049 -57.77173 38487 ft 408 kts 239°
2026-04-21 18:46 47.48375 -57.83568 38487 ft 408 kts 239°
2026-04-21 18:46 47.44695 -57.89959 38488 ft 408 kts 239°
2026-04-21 18:47 47.41014 -57.96336 38488 ft 408 kts 239°
2026-04-21 18:47 47.37333 -58.02699 38488 ft 408 kts 238°
2026-04-21 18:48 47.33647 -58.09054 38489 ft 408 kts 238°
2026-04-21 18:48 47.29972 -58.15376 38489 ft 408 kts 238°
2026-04-21 18:49 47.26277 -58.21717 38489 ft 408 kts 238°
2026-04-21 18:49 47.23192 -58.27000 38490 ft 409 kts 238°
2026-04-21 18:50 47.18847 -58.34424 38490 ft 410 kts 238°
2026-04-21 18:50 47.15130 -58.40758 38491 ft 410 kts 238°
2026-04-21 18:51 47.11390 -58.47117 38491 ft 411 kts 237°
2026-04-21 18:51 47.07647 -58.53466 38491 ft 411 kts 237°
2026-04-21 18:52 47.03924 -58.59767 38494 ft 411 kts 237°
2026-04-21 18:52 47.00186 -58.66077 38495 ft 411 kts 237°
2026-04-21 18:53 46.96432 -58.72401 38494 ft 411 kts 237°
2026-04-21 18:53 46.92675 -58.78714 38494 ft 411 kts 237°
2026-04-21 18:54 46.88923 -58.85005 38495 ft 411 kts 237°
2026-04-21 18:54 46.85142 -58.91330 38494 ft 412 kts 237°
2026-04-21 18:55 46.82009 -58.96559 38494 ft 412 kts 237°
2026-04-21 18:55 46.77613 -59.03880 38489 ft 411 kts 236°
2026-04-21 18:56 46.73831 -59.10163 38486 ft 412 kts 236°
2026-04-21 18:56 46.70047 -59.16433 38487 ft 412 kts 236°
2026-04-21 18:57 46.66254 -59.22706 38489 ft 412 kts 236°
2026-04-21 18:57 46.62464 -59.28957 38490 ft 412 kts 236°
2026-04-21 18:58 46.58687 -59.35175 38491 ft 412 kts 236°
2026-04-21 18:58 46.54888 -59.41413 38492 ft 413 kts 236°
2026-04-21 18:59 46.51081 -59.47651 38494 ft 413 kts 236°
2026-04-21 18:59 46.47260 -59.53898 38495 ft 413 kts 235°
2026-04-21 19:00 46.43437 -59.60134 38496 ft 414 kts 235°
2026-04-21 19:00 46.39613 -59.66355 38497 ft 413 kts 235°
2026-04-21 19:01 46.35808 -59.72571 38498 ft 413 kts 235°
2026-04-21 19:01 46.31981 -59.78814 38499 ft 414 kts 235°
2026-04-21 19:02 46.28139 -59.85010 38499 ft 414 kts 234°
2026-04-21 19:02 46.24278 -59.91211 38499 ft 414 kts 234°
2026-04-21 19:03 46.20430 -59.97381 38500 ft 415 kts 234°
2026-04-21 19:03 46.16555 -60.03588 38499 ft 415 kts 234°
2026-04-21 19:04 46.13086 -60.10087 38499 ft 410 kts 241°
2026-04-21 19:04 46.09900 -60.16884 38500 ft 409 kts 242°
2026-04-21 19:05 46.06700 -60.23673 38500 ft 409 kts 242°
2026-04-21 19:05 46.03489 -60.30427 38499 ft 408 kts 242°
2026-04-21 19:06 46.00265 -60.37176 38499 ft 409 kts 241°
2026-04-21 19:06 45.97039 -60.43909 38499 ft 410 kts 241°
2026-04-21 19:07 45.93846 -60.50660 38498 ft 410 kts 242°
2026-04-21 19:07 45.90615 -60.57483 38497 ft 410 kts 241°
2026-04-21 19:08 45.87413 -60.64186 38496 ft 410 kts 241°
2026-04-21 19:08 45.84174 -60.70933 38495 ft 411 kts 241°
2026-04-21 19:09 45.80919 -60.77686 38495 ft 411 kts 240°
2026-04-21 19:09 45.77681 -60.84388 38493 ft 411 kts 240°
2026-04-21 19:10 45.74415 -60.91128 38493 ft 412 kts 240°
2026-04-21 19:10 45.71151 -60.97850 38492 ft 412 kts 240°
2026-04-21 19:11 45.67864 -61.04600 38007 ft 412 kts 240°
2026-04-21 19:11 45.66227 -61.07957 37366 ft 412 kts 240°
2026-04-21 19:11 45.64586 -61.11320 36690 ft 412 kts 240°
2026-04-21 19:11 45.62940 -61.14686 36003 ft 413 kts 239°
2026-04-21 19:12 45.61862 -61.16889 35662 ft 410 kts 239°
2026-04-21 19:12 45.59681 -61.21341 34983 ft 405 kts 239°
2026-04-21 19:12 45.58070 -61.24623 34488 ft 401 kts 239°
2026-04-21 19:12 45.56498 -61.27825 34008 ft 397 kts 239°
2026-04-21 19:13 45.54917 -61.31040 33526 ft 393 kts 239°
2026-04-21 19:13 45.53354 -61.34216 33050 ft 389 kts 239°
2026-04-21 19:13 45.51803 -61.37362 32580 ft 386 kts 239°
2026-04-21 19:13 45.50262 -61.40487 32115 ft 383 kts 239°
2026-04-21 19:14 45.48735 -61.43581 31655 ft 380 kts 239°
2026-04-21 19:14 45.47221 -61.46641 31200 ft 378 kts 239°
2026-04-21 19:14 45.45707 -61.49702 30748 ft 375 kts 239°
2026-04-21 19:14 45.44217 -61.52709 30301 ft 373 kts 239°
2026-04-21 19:15 45.42717 -61.55733 29842 ft 370 kts 239°
2026-04-21 19:15 45.41257 -61.58691 29379 ft 368 kts 239°
2026-04-21 19:15 45.39786 -61.61706 28908 ft 366 kts 239°
2026-04-21 19:15 45.38326 -61.64666 28444 ft 364 kts 239°
2026-04-21 19:16 45.36863 -61.67605 27980 ft 362 kts 239°
2026-04-21 19:16 45.35427 -61.70482 27526 ft 361 kts 239°
2026-04-21 19:16 45.34010 -61.73309 27077 ft 359 kts 239°
2026-04-21 19:16 45.32565 -61.76190 26618 ft 357 kts 238°
2026-04-21 19:17 45.29696 -61.81899 25707 ft 353 kts 238°
2026-04-21 19:17 45.28258 -61.84757 25011 ft 358 kts 238°
2026-04-21 19:17 45.26814 -61.87627 24508 ft 357 kts 238°
2026-04-21 19:18 45.25379 -61.90476 24149 ft 352 kts 238°
2026-04-21 19:18 45.24001 -61.93298 23897 ft 344 kts 242°
2026-04-21 19:18 45.22879 -61.96238 23638 ft 336 kts 249°
2026-04-21 19:18 45.22001 -61.99316 23241 ft 333 kts 252°
2026-04-21 19:19 45.21490 -62.01351 22949 ft 332 kts 253°
2026-04-21 19:19 45.20512 -62.05488 22352 ft 331 kts 253°
2026-04-21 19:19 45.20028 -62.07544 22051 ft 330 kts 253°
2026-04-21 19:19 45.19066 -62.11637 21449 ft 329 kts 253°
2026-04-21 19:20 45.18337 -62.14737 20990 ft 328 kts 253°
2026-04-21 19:20 45.17624 -62.17766 20537 ft 327 kts 253°
2026-04-21 19:20 45.16905 -62.20822 20077 ft 327 kts 253°
2026-04-21 19:20 45.16182 -62.23892 19613 ft 326 kts 253°
2026-04-21 19:21 45.15706 -62.25910 19305 ft 325 kts 253°
2026-04-21 19:21 45.14990 -62.28945 18842 ft 324 kts 253°
2026-04-21 19:21 45.14038 -62.32978 18218 ft 323 kts 253°
2026-04-21 19:21 45.13323 -62.36003 17747 ft 323 kts 253°
2026-04-21 19:22 45.12611 -62.39012 17276 ft 322 kts 252°
2026-04-21 19:22 45.11928 -62.42027 16802 ft 321 kts 254°
2026-04-21 19:22 45.11262 -62.45040 16324 ft 320 kts 253°
2026-04-21 19:22 45.10577 -62.48037 15844 ft 319 kts 252°
2026-04-21 19:23 45.09882 -62.51013 15363 ft 318 kts 252°
2026-04-21 19:23 45.09191 -62.53942 14886 ft 318 kts 252°
2026-04-21 19:23 45.08479 -62.56931 14395 ft 317 kts 252°
2026-04-21 19:23 45.07780 -62.59858 13913 ft 316 kts 252°
2026-04-21 19:24 45.07093 -62.62727 13422 ft 299 kts 252°
2026-04-21 19:24 45.06445 -62.65431 12970 ft 285 kts 251°
2026-04-21 19:24 45.05804 -62.68105 12518 ft 287 kts 251°
2026-04-21 19:24 45.05162 -62.70773 12059 ft 288 kts 251°
2026-04-21 19:25 45.04517 -62.73458 11596 ft 289 kts 251°
2026-04-21 19:25 45.03868 -62.76155 11126 ft 290 kts 251°
2026-04-21 19:25 45.03223 -62.78835 10649 ft 283 kts 251°
2026-04-21 19:25 45.02620 -62.81369 10256 ft 266 kts 252°
2026-04-21 19:26 45.02283 -62.83910 10195 ft 255 kts 262°
2026-04-21 19:26 45.02167 -62.86361 10097 ft 247 kts 265°
2026-04-21 19:26 45.02153 -62.88721 9851 ft 231 kts 267°
2026-04-21 19:26 45.02166 -62.90885 9723 ft 213 kts 267°
2026-04-21 19:27 45.02197 -62.92889 9617 ft 190 kts 267°
2026-04-21 19:27 45.02224 -62.94637 9448 ft 171 kts 266°
2026-04-21 19:27 45.02244 -62.96268 9204 ft 159 kts 265°
2026-04-21 19:27 45.02260 -62.97810 8845 ft 159 kts 265°
2026-04-21 19:28 45.02275 -62.99379 8485 ft 159 kts 265°
2026-04-21 19:28 45.02288 -63.00899 8159 ft 158 kts 265°
2026-04-21 19:28 45.02300 -63.02469 7801 ft 158 kts 265°
2026-04-21 19:28 45.02311 -63.04014 7462 ft 158 kts 265°
2026-04-21 19:29 45.02322 -63.05586 7121 ft 159 kts 264°
2026-04-21 19:29 45.02328 -63.06611 6949 ft 156 kts 264°
2026-04-21 19:29 45.02337 -63.08171 6708 ft 158 kts 264°
2026-04-21 19:29 45.02345 -63.09689 6471 ft 157 kts 264°
2026-04-21 19:30 45.02354 -63.11240 6232 ft 156 kts 264°
2026-04-21 19:30 45.02362 -63.12763 5994 ft 155 kts 264°
2026-04-21 19:30 45.02370 -63.14292 5767 ft 157 kts 264°
2026-04-21 19:30 45.02378 -63.15827 5520 ft 156 kts 264°
2026-04-21 19:31 45.02385 -63.17357 5275 ft 154 kts 264°
2026-04-21 19:31 45.02390 -63.18874 5045 ft 155 kts 264°
2026-04-21 19:31 45.02397 -63.20405 4808 ft 155 kts 264°
2026-04-21 19:31 45.02404 -63.21925 4568 ft 155 kts 264°
2026-04-21 19:32 45.02412 -63.23448 4338 ft 157 kts 264°
2026-04-21 19:32 45.02418 -63.25003 4090 ft 157 kts 264°
2026-04-21 19:32 45.02424 -63.26547 3846 ft 157 kts 264°
2026-04-21 19:32 45.02432 -63.28087 3605 ft 156 kts 264°
2026-04-21 19:33 45.02438 -63.29614 3425 ft 154 kts 264°
2026-04-21 19:33 45.02445 -63.31139 3356 ft 155 kts 264°
2026-04-21 19:33 45.02451 -63.32642 3308 ft 155 kts 264°
2026-04-21 19:33 45.02458 -63.34171 3267 ft 157 kts 264°
2026-04-21 19:34 45.02459 -63.35721 3224 ft 157 kts 262°
2026-04-21 19:34 45.02077 -63.37070 3141 ft 146 kts 225°
2026-04-21 19:34 45.01327 -63.38062 3056 ft 147 kts 219°
2026-04-21 19:34 45.00539 -63.38923 2924 ft 145 kts 214°
2026-04-21 19:35 44.99713 -63.39744 2800 ft 144 kts 213°
2026-04-21 19:35 44.98061 -63.41373 2563 ft 145 kts 213°
2026-04-21 19:35 44.97219 -63.42204 2445 ft 144 kts 213°
2026-04-21 19:36 44.96418 -63.42994 2320 ft 137 kts 213°
2026-04-21 19:36 44.95676 -63.43727 2180 ft 127 kts 213°
2026-04-21 19:36 44.94966 -63.44427 2078 ft 119 kts 213°
2026-04-21 19:36 44.94311 -63.45073 2002 ft 113 kts 212°
2026-04-21 19:37 44.93668 -63.45707 1962 ft 113 kts 212°
2026-04-21 19:37 44.93007 -63.46360 1751 ft 115 kts 213°
2026-04-21 19:37 44.92350 -63.47041 1460 ft 121 kts 212°
2026-04-21 19:37 44.91669 -63.47699 1293 ft 118 kts 211°
2026-04-21 19:38 44.90998 -63.48354 1086 ft 119 kts 212°
2026-04-21 19:38 44.90321 -63.49020 836 ft 118 kts 211°
2026-04-21 19:38 44.89665 -63.49669 626 ft 115 kts 212°
2026-04-21 19:38 44.89017 -63.50313 482 ft 115 kts 212°
2026-04-21 19:39 44.88408 -63.50907 422 ft 92 kts 212°
2026-04-21 19:39 44.87999 -63.51307 422 ft 51 kts 216°
2026-04-21 19:39 44.87751 -63.51548 422 ft 37 kts 218°
2026-04-21 19:39 44.87612 -63.51689 422 ft 22 kts 213°
2026-04-21 19:40 44.87537 -63.51766 422 ft 13 kts 216°
2026-04-21 19:40 44.87472 -63.51839 422 ft 8 kts 241°
2026-04-21 19:40 44.87453 -63.51915 422 ft 8 kts 254°
2026-04-21 19:40 44.87447 -63.51988 422 ft 8 kts 281°
2026-04-21 19:41 44.87457 -63.52061 422 ft 7 kts 288°
2026-04-21 19:41 44.87484 -63.52117 422 ft 7 kts 321°
2026-04-21 19:41 44.87528 -63.52104 422 ft 7 kts 38°
2026-04-21 19:41 44.87565 -63.52066 422 ft 7 kts 35°
2026-04-21 19:42 44.87602 -63.52030 422 ft 6 kts 31°
2026-04-21 19:42 44.87639 -63.51995 422 ft 6 kts 34°
2026-04-21 19:42 44.87678 -63.51957 422 ft 7 kts 34°
2026-04-21 19:42 44.87724 -63.51913 422 ft 8 kts 34°
2026-04-21 19:43 44.87775 -63.51863 422 ft 9 kts 34°
2026-04-21 19:43 44.87832 -63.51807 422 ft 10 kts 35°
2026-04-21 19:43 44.87894 -63.51746 422 ft 11 kts 35°
2026-04-21 19:43 44.87961 -63.51678 422 ft 12 kts 36°
2026-04-21 19:44 44.88035 -63.51606 422 ft 14 kts 34°
2026-04-21 19:44 44.88115 -63.51527 422 ft 15 kts 35°
2026-04-21 19:44 44.88201 -63.51441 422 ft 16 kts 35°
2026-04-21 19:44 44.88294 -63.51349 422 ft 17 kts 36°
2026-04-21 19:45 44.88384 -63.51252 422 ft 16 kts 40°
2026-04-21 19:45 44.88472 -63.51207 422 ft 13 kts 349°
2026-04-21 19:45 44.88528 -63.51223 422 ft 1 kts 349°
2026-04-21 19:45 44.88535 -63.51225 422 ft 1 kts 349°
2026-04-21 19:46 44.88548 -63.51236 422 ft 4 kts 301°
2026-04-21 19:46 44.88550 -63.51313 422 ft 10 kts 270°
2026-04-21 19:46 44.88550 -63.51343 422 ft 2 kts 270°
2026-04-21 19:46 44.88550 -63.51352 422 ft 0 kts 270°